Regional Weather Roundup
Issued by NWS

Home | Current Version | Previous Version | Text Only | Print | Product List | Glossary Off
Versions: 1 2 3 4 5 6 7 8 9 10 11 12 13 14 15 16 17 18 19 20 21 22 23 24 25 26 27 28 29 30 31 32 33 34 35 36 37 38 39 40 41 42 43 44 45 46 47 48 49 50

000
ASUS43 KLOT 231800
RWRIL

ILLINOIS REGIONAL WEATHER ROUNDUP
NATIONAL WEATHER SERVICE CHICAGO/ROMEOVILLE IL
100 PM CDT WED APR 23 2014

NOTE: "FAIR" INDICATES FEW OR NO CLOUDS BELOW 12,000 FEET WITH NO
SIGNIFICANT WEATHER AND/OR OBSTRUCTIONS TO VISIBILITY.

* THESE STATIONS ARE NOT UNDER NWS QUALITY CONTROL. THEY ALSO MAY NOT
  REPORT WEATHER SUCH AS PRECIPITATION OR FOG.

ILZ001-002-007-009-015-016-024-231900-
NORTHWEST ILLINOIS

CITY           SKY/WX    TMP DP  RH WIND       PRES   REMARKS
MOLINE         FAIR      54  29  38 SE15      30.11F
6HR MIN TEMP:  37; 6HR MAX TEMP:  55;

STERLING*      FAIR      54  30  40 E8        30.14F
$$

ILZ003-004-008-010-011-017-018-231900-
NORTH CENTRAL ILLINOIS

CITY           SKY/WX    TMP DP  RH WIND       PRES   REMARKS
ROCKFORD       CLOUDY    54  27  35 NE5       30.16F
6HR MIN TEMP:  34; 6HR MAX TEMP:  55;

$$

ILZ005-006-012>014-019>023-231900-
NORTHEAST ILLINOIS

CITY           SKY/WX    TMP DP  RH WIND       PRES   REMARKS
CHICAGO-OHARE  PTSUNNY   48  24  39 NE6       30.17S
6HR MIN TEMP:  36; 6HR MAX TEMP:  49;

CHICAGO-MIDWAY MOSUNNY   47  28  47 NE6       30.18R
6HR MIN TEMP:  38; 6HR MAX TEMP:  48;

AURORA         SUNNY     53  27  36 MISG      30.15F
6HR MIN TEMP:  32; 6HR MAX TEMP:  53;

WAUKEGAN       SUNNY     44  24  45 E9        30.18F
6HR MIN TEMP:  32; 6HR MAX TEMP:  44;

DUPAGE AIRPORT SUNNY     50  26  39 E8        30.15F
6HR MIN TEMP:  33; 6HR MAX TEMP:  51;

WHEELING       SUNNY     47  26  44 NE8       30.19S
6HR MIN TEMP:  36; 6HR MAX TEMP:  47;

NORTHERLY ISL    N/A     43  30  60 N12         N/A
$$

LMZ740>746-231900-
SOUTHERN LAKE MICHIGAN

STATION/POSITION SKY/WX   TEMP    WIND        PRES    VSBY  WAVE
                          AIR SEA DIR/SP/G                  HT/PER
                          (F)     (DEG/KT/KT) (MB)    (MI)  (FT/S)
WAUKEGAN HARBOR            38      40/  9/ 10 1023.7S
HARRISON CRIB              37     360/  9/ 10   N/A
BURNHAM HARBOR             42      30/  9/ 11   N/A
CALUMET HARBOR                    360/  8/ 12 1023.0R
MICHIGAN CITY              38     340/ 12/ 14   N/A
$$

ILZ025>027-034>036-040-047-049-050-058-095>099-231900-
WEST-CENTRAL ILLINOIS

CITY           SKY/WX    TMP DP  RH WIND       PRES   REMARKS
$$

ILZ028>032-037-038-041>044-048-051>054-059>061-231900-
CENTRAL ILLINOIS

CITY           SKY/WX    TMP DP  RH WIND       PRES   REMARKS
DECATUR        FAIR      57  28  33 VRB3      30.12F
PEORIA         FAIR      58  30  34 E3        30.13F
6HR MIN TEMP:  40; 6HR MAX TEMP:  59;

SPRINGFIELD    FAIR      59  31  34 SE7       30.12F
6HR MIN TEMP:  41; 6HR MAX TEMP:  59;

TAYLORVILLE    NOT AVBL
$$

ILZ033-039-045-046-055>057-062-063-231900-
EAST-CENTRAL ILLINOIS

CITY           SKY/WX    TMP DP  RH WIND       PRES   REMARKS
CHAMPAIGN      SUNNY     57  29  34 NE8       30.13F
MATTOON        FAIR      56  29  35 NE6       30.11F
$$

ILZ079-100>102-231900-
SOUTHWEST ILLINOIS

CITY           SKY/WX    TMP DP  RH WIND       PRES   REMARKS
ALTON          MOSUNNY   59  32  36 E10       30.10F
BELLEVILLE     FAIR      61  38  42 SE9       30.09F
CAHOKIA*       FAIR      62  38  40 SE9       30.09F
$$

ILZ064>066-069>071-074>076-080>082-084>086-088>090-092>094-231900-
SOUTH-CENTRAL ILLINOIS

CITY           SKY/WX    TMP DP  RH WIND       PRES   REMARKS
CARBONDALE     NOT AVBL
MT. VERNON     FAIR      59  32  36 N5        30.12F
$$

ILZ067-068-072-073-078-083-087-091-231900-
SOUTHEAST ILLINOIS

CITY           SKY/WX    TMP DP  RH WIND       PRES   REMARKS
$$

ABBREVIATIONS USED IN REMARKS
   TC - TEMPERATURE IN CELSIUS
  WCI - WIND CHILL INDEX
   HX - HEAT INDEX
  VSB - VISIBILITY
$$




USA.gov is the U.S. government's official web portal to all federal, state and local government web resources and services.